This is the latest recevied weather packets stored in our database for station/object KD4EG. If no packets are shown the sender has not sent any weather packets the latest 10 day(s).
| Time | Temp. | Humidity | Pressure | Rain* | Wind** | Luminosity | Snow |
|---|---|---|---|---|---|---|---|
| 1778153401 | 15.56° C | 81% | 1013.6 hPa | 0 mm | - | 28 W/m² | - |
| 1778153098 | 15.56° C | 80% | 1013.4 hPa | 0 mm | - | 29 W/m² | - |
| 1778152794 | 15.56° C | 82% | 1013.2 hPa | 0 mm | - | 26 W/m² | - |
| 1778152492 | 15° C | 84% | 1013.4 hPa | 0 mm | - | 31 W/m² | - |
| 1778152188 | 15° C | 85% | 1013.2 hPa | 0 mm | - | 22 W/m² | - |
| 1778151884 | 15° C | 85% | 1012.9 hPa | 0 mm | - | 15 W/m² | - |
| 1778151581 | 15° C | 85% | 1013 hPa | 0 mm | - | 17 W/m² | - |
| 1778151278 | 15° C | 84% | 1013 hPa | 0 mm | - | 10 W/m² | - |
| 1778150975 | 15° C | 84% | 1013 hPa | 0 mm | - | 6 W/m² | - |
| 1778150672 | 15.56° C | 84% | 1012.8 hPa | 0 mm | - | 6 W/m² | - |
| 1778150367 | 15.56° C | 83% | 1013 hPa | 0 mm | - | 5 W/m² | - |
| 1778150064 | 15.56° C | 83% | 1013.2 hPa | 0 mm | - | 2 W/m² | - |
| 1778149760 | 15.56° C | 82% | 1013 hPa | 0 mm | - | 0 W/m² | - |
| 1778149457 | 15.56° C | 82% | 1012.9 hPa | 0 mm | - | 0 W/m² | - |
| 1778149154 | 15.56° C | 82% | 1012.8 hPa | 0 mm | - | 0 W/m² | - |
| 1778148849 | 15.56° C | 83% | 1012.8 hPa | 0 mm | - | 0 W/m² | - |
| 1778148546 | 15.56° C | 86% | 1012.7 hPa | 0 mm | - | 0 W/m² | - |
| 1778148243 | 15.56° C | 86% | 1012.7 hPa | 0 mm | - | 0 W/m² | - |
| 1778147941 | 15.56° C | 86% | 1012.9 hPa | 0 mm | - | 0 W/m² | - |
| 1778147638 | 15.56° C | 86% | 1012.6 hPa | 0 mm | - | 0 W/m² | - |
| 1778147335 | 15.56° C | 85% | 1012.9 hPa | 0 mm | - | 0 W/m² | - |
| 1778147032 | 15.56° C | 85% | 1013 hPa | 0 mm | - | 0 W/m² | - |
| 1778146729 | 15.56° C | 86% | 1012.8 hPa | 0 mm | - | 0 W/m² | - |
| 1778146427 | 15.56° C | 86% | 1013 hPa | 0 mm | - | 0 W/m² | - |
| 1778146125 | 15.56° C | 86% | 1012.9 hPa | 0 mm | - | 0 W/m² | - |
* Rain latest hour (hover to see other rain measurements)
** Current wind speed in m/s (hover to see current wind gust speed)